Вернуться в каталог

COSMOS 539

АктивенВоенныеLEO
NORAD 6319·PAYLOAD·🇷🇺 Russia

Запущен Dec 21, 1972 с Plesetsk Cosmodrome

Loading…

Ближайшие Пролёты (ближайшие 24 часа)

TLE

СвежийSource: Space-Track

Эпоха: Sep 14, 2026, 11:07 UTC

1 06319U 72102A   26257.46325922  .00000006  00000-0  10652-3 0  9999
2 06319  74.0173 144.6065 0024358 317.1472 216.3307 12.75429675501552

Отслеживайте COSMOS 539 в реальном времени с AllMySat

Download on the App Store